Hartford, CT

7:57 PM EDT on September 28, 2016 (GMT -0400)
Bradley International

Weather History for KBDL - June, 2013

Change the Weather History Date:

Saturday, June 15, 2013

  Actual Average Record
Temperature  
Mean Temperature 66 °F 69 °F  
Max Temperature 80 °F 80 °F 97 °F (1988)
Min Temperature 51 °F 57 °F 41 °F (1953)
Degree Days  
Heating Degree Days 0 1  
Month to date heating degree days 33 32  
Since 1 June heating degree days 33 32  
Since 1 July heating degree days 5717 5990  
Cooling Degree Days 1 5  
Month to date cooling degree days 37 52  
Year to date cooling degree days 91 91  
Since 1 June cooling degree days 37 52  
Growing Degree Days 16 (Base 50)    
Moisture  
Dew Point 49 °F    
Average Humidity 61    
Maximum Humidity 96    
Minimum Humidity 25    
Precipitation  
Precipitation 0.00 in 0.15 in 1.94 in (2015)
Month to date precipitation 8.56 2.47  
Year to date precipitation 24.70 20.28  
Snow  
Snow 0.00 in 0.00 in 0.00 in (2002)
Month to date snowfall 0.0 0.0  
Since 1 June snowfall 0.0 0.0  
Since 1 July snowfall 56.9 40.5  
Snow Depth 0.00 in    
Sea Level Pressure  
Sea Level Pressure 29.91 in    
Wind  
Wind Speed 6 mph (NW)    
Max Wind Speed 18 mph    
Max Gust Speed 24 mph    
Visibility 10 miles    
Events      
T = Trace of Precipitation, MM = Missing Value Source: NWS Daily Summary

Daily Weather History Graph

Daily Weather History Graph

Search for Another Location

Airport or City:

Trip Planner

Search our weather history database for the weather conditions in past years. The results will help you decide how hot, cold, wet, or windy it might be!

Date:

Astronomy

Jun. 15, 2013 Rise Set
Actual Time 5:14 AM EDT 8:27 PM EDT
Civil Twilight 4:40 AM EDT 9:02 PM EDT
Nautical Twilight 3:56 AM EDT 9:46 PM EDT
Astronomical Twilight 3:02 AM EDT 10:40 PM EDT
Moon 11:52 AM EDT (6/15) No Moon Set
Length of Visible Light 16h 21m
Length of Day
15h 13m
Waxing Crescent, 39% of the Moon is Illuminated
Jun 15
Waxing Crescent
Jun 16
First Quarter
Jun 23
Full
Jun 30
Last Quarter
Jul 8
New

Hourly Weather History & Observations

Time (EDT) Temp. Dew Point Humidity Pressure Visibility Wind Dir Wind Speed Gust Speed Precip Events Conditions
12:51 AM 59.0 °F 55.0 °F 87% 29.84 in 10.0 mi Calm Calm - N/A   Clear
1:51 AM 59.0 °F 55.0 °F 87% 29.84 in 10.0 mi Calm Calm - N/A   Clear
2:51 AM 55.0 °F 53.1 °F 93% 29.86 in 10.0 mi Calm Calm - N/A   Clear
3:51 AM 55.0 °F 52.0 °F 89% 29.87 in 10.0 mi Calm Calm - N/A   Clear
4:51 AM 55.0 °F 52.0 °F 89% 29.89 in 9.0 mi Variable 3.5 mph - N/A   Clear
5:51 AM 52.0 °F 50.0 °F 93% 29.91 in 10.0 mi WNW 3.5 mph - N/A   Clear
6:51 AM 61.0 °F 55.0 °F 81% 29.92 in 10.0 mi Calm Calm - N/A   Partly Cloudy
7:51 AM 64.0 °F 53.1 °F 67% 29.94 in 10.0 mi North 5.8 mph - N/A   Partly Cloudy
8:51 AM 68.0 °F 53.1 °F 59% 29.96 in 10.0 mi NNW 4.6 mph - N/A   Partly Cloudy
9:51 AM 71.1 °F 48.9 °F 45% 29.96 in 10.0 mi Variable 5.8 mph - N/A   Partly Cloudy
10:51 AM 72.0 °F 46.9 °F 41% 29.95 in 10.0 mi Calm Calm - N/A   Partly Cloudy
11:51 AM 75.9 °F 46.9 °F 36% 29.94 in 10.0 mi WNW 8.1 mph - N/A   Partly Cloudy
12:51 PM 77.0 °F 45.0 °F 32% 29.94 in 10.0 mi WNW 11.5 mph - N/A   Scattered Clouds
1:51 PM 78.1 °F 39.9 °F 25% 29.93 in 10.0 mi NNW 15.0 mph 19.6 mph N/A   Scattered Clouds
2:51 PM 78.1 °F 41.0 °F 27% 29.91 in 10.0 mi NNW 11.5 mph - N/A   Scattered Clouds
3:51 PM 79.0 °F 45.0 °F 30% 29.91 in 10.0 mi WNW 11.5 mph 17.3 mph N/A   Scattered Clouds
4:51 PM 79.0 °F 44.1 °F 29% 29.90 in 10.0 mi NW 5.8 mph 18.4 mph N/A   Scattered Clouds
5:51 PM 78.1 °F 44.1 °F 30% 29.90 in 10.0 mi WNW 6.9 mph - N/A   Scattered Clouds
6:51 PM 77.0 °F 44.1 °F 31% 29.90 in 10.0 mi WNW 12.7 mph 17.3 mph N/A   Scattered Clouds
7:51 PM 73.9 °F 46.0 °F 37% 29.90 in 10.0 mi WNW 5.8 mph - N/A   Partly Cloudy
8:51 PM 66.9 °F 51.1 °F 57% 29.92 in 10.0 mi WNW 3.5 mph - N/A   Partly Cloudy
9:51 PM 63.0 °F 52.0 °F 67% 29.94 in 10.0 mi West 3.5 mph - N/A   Partly Cloudy
10:51 PM 62.1 °F 51.1 °F 67% 29.95 in 10.0 mi WNW 4.6 mph - N/A   Clear
11:51 PM 61.0 °F 50.0 °F 67% 29.96 in 10.0 mi NW 4.6 mph - N/A   Clear